Weather in Nasadka

Russia / Perm Krai     57°52′21″N   56°47′25″E
temp.,
°C
wind,
m/s
gust,
m/s
humid.,
%
clouds,
%
prec.,
mm/h
press.,
hPa
HPBL,
m
1 march, mon
mon123:00−16ene399498 0.4 1013502
02:00−16ene3896100 0.2 1014404
05:00−17ne269799 0.4 1016258
08:00−19ne259788 0.1 1017144
11:00−16ene239087 0.1 1018292
14:00−12ese118392 0.0 1017437
17:00−12s018596 0.0 1017419
20:00−17s229695 0.0 101620
2 march, tue
tue223:00−18ssw239769 0.0 101532
02:00−19s369851 0.0 1013120
05:00−18s499572 0.0 1010327
08:00−17s51193100 0.1 1007396
11:00−15s51194100 0.8 1005458
14:00−13s51093100 1.0 1002596
17:00−12s51093100 1.8 1000607
20:00−12s41094100 0.8 998525
3 march, wed
wed323:00−10s4995100 1.7 997465
02:00−10sse3895100 1.5 996368
05:00−9sse2696100 3.1 995254
08:00−9se1197100 0.8 99421
11:00−7nw2494100 0.9 995258
14:00−5wnw239098 0.0 995431
17:00−4w239198 0.1 996445
20:00−6sw2497100 0.3 996118
4 march, thu
thu423:00−5wnw3895100 0.6 997427
02:00−8wnw4994100 0.1 997382
05:00−11w379588 0.2 998216
08:00−15w369778 0.0 999149
11:00−9wsw379179 0.1 999414
14:00−6wsw468590 0.0 999781
17:00−6wsw488595 0.1 999887
20:00−10ssw3794100 0.0 998170
5 march, fri
fri523:00−8s41194100 0.1 996581
02:00−7s51294100 0.6 992784
05:00−5s51295100 1.6 988711
08:00−3ssw4997100 1.4 986542
11:00−3wnw61191100 3.9 985869
14:00−5w61187100 0.2 9901067
17:00−7wnw71287100 0.4 9971047
20:00−10wnw51286100 0.1 1002843